Погода в Татищево

Россия / Саратовская область     51°40′14″N   45°35′41″E
темп.,
°C
ветер,
м/с
пор.,
м/с
влажн.,
%
обл.,
%
осадки,
мм/ч
давл.,
гПа
погр.,
м
5 марта, пт
пт501:00+1зюз8158887 0.0 1004813
04:00+1зюз7139894 0.2 1003595
07:00+1з71298100 1.4 1002681
10:000з81398100 1.4 1004823
13:000зсз71192100 0.3 1006766
16:00−1сз588498 0.3 1009790
19:00−6зсз349231 0.0 101260
22:00−9зсз339248 0.0 101533
6 марта, сб
сб601:00−10зсз339193 0.0 101632
04:00−11сз239285 0.0 101726
07:00−10ссз2291100 0.0 101724
10:00−7всв1188100 0.0 101782
13:00−5всв3487100 0.0 1016309
16:00−5всв3489100 0.0 1015394
19:00−7св2293100 0.0 101422
22:00−9ссв2293100 0.0 101422
7 марта, вс
вс701:00−12ссз228752 0.0 101421
04:00−14сз339228 0.0 101528
07:00−15зсз34915 0.0 101648
10:00−11з489412 0.0 1016222
13:00−7зюз6118981 0.0 1015672
16:00−6зюз7128875 0.1 1013924
19:00−6юз71586100 0.0 1010828
22:00−5юз91793100 0.1 10071083
8 марта, пн
пн801:00−4зюз111892100 1.0 10041021
04:00−8з6147797 1.3 1006406
07:00−10юз488456 0.0 1007147
10:00−7юз6138861 0.0 1006505
13:00−3зюз599599 0.3 1004613
16:00−1зюз91494100 1.8 10031092
19:00−5зсз10158998 2.0 1004923
22:00−11з7168672 2.0 1009525
9 марта, вт
вт901:00−12з615920 0.0 1011366
04:00−14з5119516 0.0 1012228
07:00−16з469653 0.0 101494
10:00−13зюз359567 0.0 1015171
13:00−10з3490100 0.0 1014255
16:00−8зсз2287100 0.0 1014348
19:00−11сз2294100 0.0 101321
22:00−14ссз449689 0.0 101570